[[{"header":{"parameterUnit":"m.s-1","parameterCategory":1,"la1":30.2991,"la2":30.254,"lo1":-89.0895,"lo2":-89.0444,"dy":0.0017,"dx":0.0017,"nx":28,"ny":28,"refTime":"2024-03-30T09:00:00:Z","depth":0,"parameterNumber":2,"parameterNumberName":"U-component_of_WINDS"},"data":[0,0,0,0,0,0,0,0,0,0,0,0,0,0,0,0,0,0,0,0,0,0,0,0,0,0,0,0,0,0,0,0,0,0,0,0,0,0,0,0,0,0,0,0,0,0,0,0,0,0,0,0,0,0,0,0,0,0,-1.2042,-1.2041,0,-1.1976,-1.1976,-1.1975,-1.1933,-1.1933,-1.1933,-1.1932,-1.1865,-1.1864,-1.1862,0,0,0,0,0,0,0,0,0,0,0,0,0,-1.2132,-1.2131,-1.2042,-1.2041,-1.2041,-1.1977,-1.1976,-1.1975,-1.1933,-1.1933,-1.1933,-1.1932,-1.1866,-1.1864,-1.1862,0,0,0,0,0,0,0,0,0,0,0,0,0,-1.2082,-1.213,-1.2042,-1.2012,-1.2009,-1.1977,-1.1976,-1.1975,-1.1933,-1.1933,-1.1933,-1.1932,-1.1867,-1.1864,-1.1862,-1.1855,0,0,-1.1855,-1.1854,0,0,0,0,0,0,0,0,-1.2085,-1.2079,-1.2017,-1.2014,-1.201,-1.1963,-1.1983,-1.1934,-1.1933,-1.1962,-1.1932,-1.1932,-1.1898,-1.1893,-1.1882,-1.1852,-1.1849,-1.1855,-1.1853,-1.1852,-1.1852,0,0,0,0,0,0,0,-1.2089,-1.2082,-1.2016,-1.2017,-1.2012,-1.2002,-1.1994,-1.1973,-1.1933,-1.1959,-1.1956,-1.1949,-1.1896,-1.1884,-1.188,-1.1848,-1.1855,-1.1853,-1.1851,-1.185,-1.1809,-1.1809,0,0,0,0,0,0,-1.2097,-1.2085,-1.2018,-1.2014,-1.2048,-1.2001,-1.1992,-1.1978,-1.1933,-1.1926,-1.1949,-1.1947,-1.1888,-1.1883,-1.1877,-1.1865,-1.1852,-1.185,-1.1849,-1.1808,-1.1809,-1.1809,0,0,0,0,0,0,-1.2099,-1.2091,-1.2021,-1.2049,-1.2039,-1.1999,-1.1984,-1.1977,-1.1965,-1.1925,-1.1918,-1.1944,-1.1888,-1.1881,-1.1861,-1.1863,-1.1849,-1.1847,-1.1808,-1.1808,-1.1809,-1.1843,0,0,0,0,0,0,-1.2102,-1.2092,-1.2089,-1.2049,-1.2038,-1.2006,-1.1984,-1.1976,-1.1961,-1.1958,-1.1919,-1.1912,-1.1887,-1.1864,-1.1858,-1.1859,-1.1845,-1.1808,-1.1808,-1.1809,-1.1841,-1.1844,-1.1847,0,0,0,0,0,-1.2105,-1.2102,-1.2089,-1.2082,-1.2033,-1.2006,-1.1999,-1.197,-1.1961,-1.1958,-1.1933,-1.1913,-1.1864,-1.1863,-1.1856,-1.1856,-1.1807,-1.1808,-1.1809,-1.184,-1.1843,-1.1847,0,0,0,0,0,0,-1.2144,-1.2096,-1.2082,-1.2065,-1.204,-1.1999,-1.1994,-1.1975,-1.1952,-1.195,-1.1915,-1.1907,-1.189,-1.1871,-1.1871,-1.1846,-1.1833,-1.1832,-1.1859,-1.1862,-1.1865,-1.187,-1.1843,0,0,0,0,0,-1.215,-1.2132,-1.2091,-1.2081,-1.2069,-1.2033,-1.2021,-1.2,-1.1973,-1.1962,-1.1935,-1.1909,-1.1887,-1.1874,-1.1852,-1.1838,-1.1829,-1.1835,-1.1838,-1.184,-1.184,-1.183,-1.1832,-1.1811,-1.1811,-1.1811,0,0,-1.2164,-1.2135,-1.2126,-1.2088,-1.2066,-1.2048,-1.2025,-1.2007,-1.1993,-1.1959,-1.1939,-1.1918,-1.1887,-1.187,-1.1861,-1.1853,-1.1844,-1.1841,-1.1843,-1.1841,-1.1831,-1.1833,-1.1835,-1.1812,-1.1811,-1.1811,0,0,-1.2179,-1.2156,-1.2144,-1.2122,-1.2089,-1.2065,-1.2063,-1.2024,-1.2009,-1.1988,-1.1962,-1.1945,-1.1909,-1.1888,-1.1872,-1.1879,-1.186,-1.1873,-1.1887,-1.1878,-1.188,-1.1881,-1.1883,-1.1884,-1.1873,-1.1873,-1.1873,0,-1.2199,-1.2171,-1.214,-1.2123,-1.2107,-1.2075,-1.2063,-1.2044,-1.2005,-1.1995,-1.1987,-1.194,-1.1917,-1.1894,-1.1896,-1.1885,-1.188,-1.1877,-1.1882,-1.1883,-1.1884,-1.1885,-1.1886,-1.1874,-1.1874,-1.1874,-1.1874,0,-1.2198,-1.2179,-1.2173,-1.2136,-1.212,-1.2105,-1.2072,-1.2059,-1.204,-1.2018,-1.1996,-1.1967,-1.1938,-1.1932,-1.1913,-1.1906,-1.1902,-1.1889,-1.1875,-1.1888,-1.1889,-1.1889,-1.1877,-1.1876,-1.1876,-1.1875,0,0,-1.2236,-1.2181,-1.218,-1.2163,-1.2124,-1.2108,-1.2092,-1.2064,-1.2053,-1.2028,-1.2013,-1.1983,-1.197,-1.1953,-1.1932,-1.1924,-1.193,-1.1911,-1.191,-1.1915,-1.192,-1.193,-1.1931,-1.1918,-1.1918,-1.1918,-1.1922,0,-1.2245,-1.2214,-1.2185,-1.2165,-1.2147,-1.2116,-1.2103,-1.2077,-1.2056,-1.2037,-1.2013,-1.1992,-1.1977,-1.1966,-1.1957,-1.1932,-1.1931,-1.1931,-1.1904,-1.1903,-1.1912,-1.1932,-1.1942,-1.1948,-1.1923,-1.1923,-1.1923,0,-1.2251,-1.2226,-1.2204,-1.2166,-1.2157,-1.2146,-1.2117,-1.21,-1.207,-1.2055,-1.2035,-1.2013,-1.1994,-1.1983,-1.1957,-1.1957,-1.1945,-1.193,-1.193,-1.1926,-1.1913,-1.1928,-1.1949,-1.195,-1.1923,-1.1923,-1.1923,0,-1.228,-1.2241,-1.2223,-1.2209,-1.2165,-1.2157,-1.2138,-1.2108,-1.2093,-1.2068,-1.2057,-1.2031,-1.2016,-1.1996,-1.1967,-1.1962,-1.1944,-1.193,-1.1931,-1.1931,-1.1928,-1.1929,-1.1947,-1.1921,-1.1921,-1.1921,-1.1921,0,-1.2293,-1.228,-1.2235,-1.2224,-1.2209,-1.2176,-1.2162,-1.2141,-1.2114,-1.2098,-1.2071,-1.2056,-1.2019,-1.2,-1.1977,-1.1959,-1.1953,-1.194,-1.1934,-1.1942,-1.1943,-1.1932,-1.1931,-1.1921,-1.1921,-1.1921,-1.1921,0,-1.2322,-1.2292,-1.227,-1.2229,-1.2219,-1.2209,-1.2175,-1.2163,-1.2139,-1.2119,-1.2113,-1.2076,-1.2052,-1.2022,-1.1988,-1.1973,-1.1957,-1.1948,-1.1967,-1.1963,-1.1965,-1.1965,-1.1977,-1.1977,-1.1951,-1.1952,-1.1952,0,-1.2332,-1.2322,-1.228,-1.2267,-1.2249,-1.2229,-1.2213,-1.218,-1.2164,-1.213,-1.2122,-1.2096,-1.2073,-1.2036,-1.2007,-1.1981,-1.1971,-1.1977,-1.1967,-1.1975,-1.197,-1.1971,-1.1969,-1.1979,-1.198,-1.198,-1.198,0,-1.2353,-1.2338,-1.2316,-1.2288,-1.227,-1.2247,-1.2222,-1.2213,-1.2176,-1.216,-1.2135,-1.2117,-1.2083,-1.2057,-1.2027,-1.2008,-1.1987,-1.1984,-1.1982,-1.199,-1.2001,-1.1995,-1.1973,-1.1983,-1.1983,-1.1983,-1.1983,-1.1983,-1.2373,-1.2362,-1.2331,-1.2307,-1.2285,-1.2262,-1.2249,-1.2223,-1.2202,-1.2171,-1.2153,-1.2129,-1.2099,-1.2057,-1.2038,-1.2018,-1.2011,-1.2009,-1.2008,-1.2008,-1.201,-1.2005,-1.2013,-1.2013,-1.2012,-1.2012,-1.2012,0,-1.2392,-1.237,-1.2348,-1.2314,-1.2295,-1.2278,-1.225,-1.2235,-1.2214,-1.2188,-1.2166,-1.2137,-1.2112,-1.208,-1.2053,-1.2043,-1.2033,-1.2037,-1.2037,-1.2032,-1.2019,-1.2023,-1.2045,-1.2045,-1.2045,-1.2045,-1.2045,-1.2045,-1.2399,-1.238,-1.2361,-1.233,-1.2308,-1.2284,-1.2269,-1.2248,-1.2227,-1.2196,-1.2174,-1.2154,-1.2125,-1.2095,-1.2071,-1.2063,-1.2054,-1.206,-1.2049,-1.2037,-1.2034,-1.2031,-1.2034,-1.2059,-1.2059,-1.2064,-1.2064,-1.2064]},{"header":{"parameterUnit":"m.s-1","parameterCategory":1,"la1":30.2991,"la2":30.254,"lo1":-89.0895,"lo2":-89.0444,"dy":0.0017,"dx":0.0017,"nx":28,"ny":28,"refTime":"2024-03-30T09:00:00:Z","depth":0,"parameterNumber":3,"parameterNumberName":"V-component_of_WINDS"},"data":[0,0,0,0,0,0,0,0,0,0,0,0,0,0,0,0,0,0,0,0,0,0,0,0,0,0,0,0,0,0,0,0,0,0,0,0,0,0,0,0,0,0,0,0,0,0,0,0,0,0,0,0,0,0,0,0,0,0,2.2574,2.2574,0,2.2612,2.2612,2.2613,2.2578,2.2577,2.2575,2.2574,2.2611,2.2613,2.2615,0,0,0,0,0,0,0,0,0,0,0,0,0,2.2468,2.247,2.2574,2.2574,2.2575,2.2612,2.2612,2.2613,2.2579,2.2577,2.2575,2.2574,2.261,2.2613,2.2615,0,0,0,0,0,0,0,0,0,0,0,0,0,2.2511,2.2471,2.2574,2.2562,2.2561,2.2612,2.2612,2.2613,2.2579,2.2577,2.2575,2.2573,2.2609,2.2612,2.2616,2.2678,0,0,2.2626,2.2627,0,0,0,0,0,0,0,0,2.2509,2.2515,2.2563,2.2563,2.2562,2.2588,2.2588,2.2635,2.2579,2.2572,2.2574,2.2572,2.2605,2.2608,2.262,2.268,2.2682,2.2626,2.2628,2.263,2.2631,0,0,0,0,0,0,0,2.2506,2.2513,2.2589,2.2564,2.2563,2.2554,2.2558,2.2597,2.26,2.2573,2.257,2.2575,2.2604,2.2617,2.2621,2.2682,2.2626,2.2629,2.2631,2.2633,2.2794,2.2796,0,0,0,0,0,0,2.2504,2.2511,2.2587,2.259,2.253,2.2558,2.2562,2.2582,2.2599,2.26,2.2577,2.2574,2.2612,2.2617,2.2622,2.2695,2.263,2.2633,2.2635,2.2792,2.2794,2.2797,0,0,0,0,0,0,2.2502,2.2511,2.2586,2.255,2.2558,2.2562,2.2585,2.2584,2.2597,2.2602,2.2602,2.259,2.261,2.2617,2.2664,2.2696,2.2635,2.2638,2.2789,2.2792,2.2795,2.2842,0,0,0,0,0,0,2.2499,2.2511,2.2536,2.2551,2.2561,2.2629,2.2587,2.2586,2.2603,2.2599,2.2614,2.2615,2.2609,2.2659,2.2668,2.2699,2.264,2.2786,2.279,2.2794,2.2838,2.2847,2.2854,0,0,0,0,0,2.2496,2.2547,2.2537,2.2546,2.2592,2.2631,2.2636,2.263,2.2606,2.263,2.2633,2.2614,2.2691,2.2665,2.2674,2.2707,2.2784,2.2789,2.2794,2.2834,2.2845,2.2854,0,0,0,0,0,0,2.2535,2.2549,2.2538,2.2596,2.2613,2.2625,2.2655,2.2642,2.2665,2.266,2.265,2.2653,2.2703,2.271,2.268,2.2767,2.2734,2.2741,2.2761,2.2771,2.2779,2.2776,2.2643,0,0,0,0,0,2.2551,2.2582,2.2592,2.2643,2.2652,2.2652,2.2669,2.2662,2.2679,2.2685,2.2693,2.2709,2.2736,2.2754,2.278,2.2839,2.2841,2.2866,2.2875,2.2881,2.2887,2.2917,2.2928,2.2813,2.2813,2.2813,0,0,2.2583,2.2594,2.2615,2.2651,2.2663,2.2695,2.2658,2.2694,2.2717,2.2691,2.2735,2.2741,2.2758,2.2812,2.2835,2.2819,2.2919,2.2888,2.2893,2.2895,2.2923,2.2934,2.2944,2.2817,2.2816,2.2815,0,0,2.2657,2.267,2.2712,2.2725,2.2744,2.2744,2.2755,2.2769,2.2772,2.2817,2.2798,2.2825,2.2873,2.2885,2.2898,2.2977,2.296,2.2986,2.3028,2.3057,2.3066,2.3074,2.3101,2.311,2.2992,2.2992,2.2992,0,2.2694,2.2743,2.2736,2.2772,2.2788,2.2767,2.2808,2.2821,2.2847,2.2858,2.2839,2.2898,2.2909,2.2963,2.2983,2.2994,2.3004,2.2983,2.3066,2.3074,2.3081,2.3106,2.3116,2.2995,2.2994,2.2994,2.2994,0,2.2786,2.282,2.2852,2.2878,2.2897,2.2937,2.2934,2.2955,2.2947,2.2948,2.2993,2.3005,2.3032,2.3045,2.3037,2.3098,2.3087,2.3068,2.3033,2.3095,2.3118,2.3128,2.2999,2.2998,2.2997,2.2996,0,0,2.2886,2.2908,2.292,2.293,2.295,2.2975,2.3013,2.304,2.3056,2.3075,2.3106,2.3147,2.3128,2.3143,2.3136,2.3162,2.3222,2.3139,2.3139,2.3152,2.3288,2.3301,2.3313,2.3211,2.3213,2.3214,2.3286,0,2.296,2.3026,2.3021,2.3083,2.3112,2.3092,2.3125,2.314,2.3142,2.3167,2.317,2.3198,2.3173,2.3181,2.3206,2.3209,2.3248,2.3204,2.3237,2.3239,2.3232,2.3325,2.334,2.3406,2.3295,2.3297,2.3298,0,2.3055,2.3077,2.3142,2.3156,2.3168,2.3198,2.3221,2.3246,2.3262,2.3261,2.3278,2.3266,2.3303,2.3269,2.3318,2.3288,2.3302,2.3305,2.3308,2.3309,2.3271,2.3327,2.3428,2.3437,2.3312,2.3311,2.331,0,2.3118,2.3165,2.3209,2.322,2.3237,2.3258,2.3266,2.328,2.3296,2.3317,2.3327,2.3352,2.3365,2.3383,2.3378,2.3354,2.3428,2.3394,2.3428,2.3428,2.3443,2.3441,2.3545,2.3455,2.3454,2.3454,2.3454,0,2.32,2.324,2.3238,2.3265,2.3309,2.3302,2.3346,2.3351,2.3364,2.339,2.3375,2.34,2.3393,2.3418,2.3415,2.3455,2.3462,2.3461,2.3459,2.3462,2.3461,2.3469,2.3464,2.3457,2.3456,2.3456,2.3455,0,2.3278,2.3279,2.3326,2.3339,2.3343,2.3374,2.3384,2.3409,2.3411,2.3445,2.3453,2.3455,2.3483,2.348,2.3512,2.351,2.3559,2.3553,2.3554,2.3552,2.3585,2.3581,2.3695,2.3709,2.3611,2.3612,2.3613,0,2.333,2.336,2.3376,2.3394,2.3403,2.3431,2.3448,2.3442,2.3459,2.3479,2.3502,2.3529,2.355,2.3596,2.3599,2.3623,2.3616,2.3655,2.362,2.362,2.3614,2.3612,2.3614,2.3661,2.3662,2.3663,2.3664,0,2.3421,2.3419,2.3444,2.3468,2.3489,2.3508,2.3525,2.354,2.3535,2.3556,2.3585,2.3601,2.3634,2.366,2.3683,2.369,2.3676,2.3675,2.3683,2.3685,2.3684,2.3683,2.3571,2.3672,2.3671,2.367,2.367,2.367,2.3486,2.3511,2.3526,2.3554,2.3566,2.3582,2.3606,2.3611,2.3635,2.3661,2.3656,2.3688,2.3702,2.3731,2.3741,2.3765,2.3751,2.3764,2.3767,2.377,2.3773,2.3682,2.3769,2.3769,2.3769,2.3769,2.3768,0,2.3574,2.3582,2.3608,2.3633,2.3654,2.364,2.3658,2.3677,2.3705,2.372,2.3741,2.3774,2.3799,2.3805,2.3829,2.3847,2.3841,2.3853,2.3851,2.3853,2.3785,2.3774,2.3858,2.3858,2.3858,2.3858,2.3858,2.3858,2.3622,2.3664,2.3664,2.3711,2.3719,2.3751,2.3763,2.3777,2.3788,2.3826,2.3847,2.3851,2.3861,2.3886,2.3908,2.3909,2.3918,2.3932,2.393,2.3867,2.3858,2.3849,2.3839,2.3935,2.3935,2.3996,2.3997,2.3997]}]]